SCP
0 0 0 0 0 0 0 0 0 0 0 0 0 0 0 0 0 0 0 0 0 0 0 0 0 1 1 1 1 1 1 1 1 1 1 1 1 1 2 1 1 1 1 1 1 1 0 0 0
0 0 0 0 0 0 0 0 0 0 0 0 0 0 0 0 0 0 0 0 0 0 0 0 0 1 1 1 1 1 1 1 1 1 1 1 1 1 1 1 1 1 1 1 1 1 1 0 0
0 0 0 0 0 0 0 0 0 0 0 0 0 0 0 0 0 0 0 0 0 0 0 0 0 1 1 1 1 1 1 1 1 1 1 1 1 1 1 1 1 2 1 1 1 1 1 0 0
0 0 0 0 0 0 0 0 0 0 0 0 0 0 0 0 0 0 0 0 0 0 0 0 0 1 1 1 1 1 1 1 1 1 1 1 1 1 1 1 1 1 1 1 1 1 1 0 0
0 0 0 0 0 0 0 0 0 0 0 0 0 0 0 0 0 0 0 0 0 0 0 0 0 1 1 1 1 2 1 1 1 1 1 1 1 1 1 1 1 1 1 1 1 1 1 1 0
0 0 0 0 0 0 0 0 0 0 0 0 0 0 0 0 0 0 0 0 0 0 0 0 0 1 1 1 1 1 1 1 1 1 1 1 1 1 1 1 1 1 1 1 1 1 1 1 0
0 0 0 0 0 0 0 0 0 0 0 0 0 0 0 0 0 0 0 0 0 0 0 0 0 0 0 1 1 1 1 1 1 1 1 1 1 1 1 1 1 1 1 1 1 1 1 1 0
0 0 0 0 0 0 0 0 0 0 0 0 0 0 0 0 0 0 0 0 0 1 1 0 0 0 0 0 0 0 0 0 0 0 0 0 0 0 0 0 0 1 1 2 1 1 1 1 0
0 0 0 0 0 0 0 0 0 0 0 0 0 0 0 0 0 0 0 0 1 1 1 1 1 0 0 0 0 0 0 0 0 0 0 0 0 0 0 0 0 1 1 1 1 1 1 1 0
0 0 0 0 0 0 0 0 0 0 0 0 0 0 0 0 0 0 0 1 1 1 1 1 1 1 0 0 0 0 0 0 0 0 0 0 0 0 0 0 0 1 1 1 1 0 1 0 0
0 0 0 0 0 0 0 0 0 0 0 0 0 0 0 0 0 0 0 1 1 1 1 1 1 1 0 0 0 0 0 0 0 0 0 0 0 0 0 0 1 1 0 0 0 0 0 0 0
0 0 0 0 0 0 0 0 0 0 0 0 0 0 0 0 0 0 0 1 1 1 1 1 1 1 0 0 0 0 0 0 0 0 0 0 0 0 0 1 1 0 0 0 0 0 0 0 0
0 0 0 0 0 0 0 0 0 0 0 0 0 0 0 0 0 0 0 0 1 1 1 1 1 1 0 0 0 0 0 0 0 0 0 0 0 0 1 1 1 0 0 0 0 0 0 0 0
0 0 0 0 0 0 0 0 0 0 0 0 1 1 0 0 0 1 1 0 0 1 1 1 1 1 0 0 0 0 0 0 0 0 0 0 1 1 1 1 1 0 0 0 0 0 0 0 0
0 0 0 0 0 0 0 0 0 0 0 0 0 0 0 0 1 1 1 0 0 0 1 1 1 1 0 0 0 0 0 0 0 0 0 1 1 1 1 1 1 0 0 0 0 0 0 0 0
0 0 0 0 0 0 0 0 0 0 0 0 0 0 0 0 1 1 0 0 0 0 0 1 1 1 1 0 0 0 0 0 0 0 0 1 1 1 1 1 1 0 0 0 0 0 0 0 0
0 0 0 0 0 0 0 0 0 0 0 0 0 0 0 0 0 0 0 0 0 0 1 1 1 1 1 0 0 0 0 0 0 1 1 1 1 1 1 1 1 1 0 0 0 0 0 0 0
0 0 0 0 0 0 0 0 0 0 0 0 0 0 0 0 0 0 0 0 1 1 1 1 1 1 1 1 0 0 0 0 1 1 1 1 0 1 1 1 1 0 0 0 0 0 0 0 0
0 0 0 0 0 0 0 0 0 0 0 0 0 0 0 0 0 0 1 1 1 1 1 1 1 1 1 1 0 0 1 1 1 1 1 1 0 0 0 0 0 0 0 0 0 0 0 0 0
0 0 0 0 0 0 0 0 0 0 0 0 0 0 0 0 0 0 1 1 1 1 1 1 1 1 1 1 1 1 1 1 1 1 1 1 0 0 0 0 0 0 0 0 0 0 0 0 0
0 0 0 0 0 0 0 0 0 0 0 0 0 0 0 0 0 0 1 1 1 1 1 1 1 1 1 1 1 1 1 1 1 1 1 1 0 0 0 0 0 0 0 0 0 0 0 0 0
0 0 0 0 0 0 0 0 0 0 0 0 0 0 0 0 0 0 0 1 1 1 1 1 1 1 1 1 1 1 1 1 1 1 1 0 0 0 0 0 0 0 0 0 0 0 0 0 0
0 0 0 0 0 0 0 0 0 0 0 0 0 0 0 0 0 0 0 0 1 1 1 1 1 1 1 1 1 1 1 1 1 1 1 0 0 0 0 0 0 0 0 0 0 0 0 0 0
0 0 0 0 0 0 0 0 0 0 0 0 0 0 0 0 0 0 0 0 0 0 1 1 1 1 1 1 1 0 0 1 1 1 1 0 0 0 0 0 0 0 0 0 0 0 0 0 0
0 0 0 0 0 0 0 0 0 0 0 0 0 0 0 0 0 0 0 0 0 0 0 1 1 1 1 1 1 0 0 0 0 0 0 0 0 0 0 0 0 0 0 0 0 0 0 0 0
0 0 0 0 0 0 0 0 0 0 0 0 0 0 0 0 0 0 0 0 0 0 0 1 1 1 1 1 1 0 0 0 0 0 0 0 0 0 0 0 0 0 0 0 0 0 0 0 0
0 0 0 0 0 0 0 0 0 0 0 0 0 0 0 0 0 0 0 0 0 0 0 1 1 1 1 1 1 0 0 0 0 0 0 0 0 0 0 0 0 0 0 0 0 0 0 0 0
0 0 0 0 0 0 0 0 0 0 0 0 0 0 0 0 0 0 0 0 0 0 0 0 0 1 0 0 0 0 0 0 0 0 0 0 0 0 0 0 0 0 0 0 0 0 0 0 0
0 0 0 0 0 0 0 0 0 0 0 0 0 0 0 0 0 0 0 0 0 0 0 0 0 0 0 0 0 0 0 0 0 0 0 0 0 0 0 0 0 0 0 0 0 0 0 0 0
0 0 0 0 0 0 0 0 0 0 0 0 0 0 0 0 0 0 0 0 0 0 0 0 0 0 0 0 0 0 0 0 0 0 0 0 0 0 0 0 0 0 0 0 0 0 0 0 0
Wind_Speed
7 4 1 3 5 3 2 4 2 0 0 0 1 4 5 3 2 3 1 4 6 7 6 7 8 9 10 10 9 9 9 9 8 8 8 8 8 8 8 8 8 8 8 8 8 8 9 9 9
3 2 4 4 4 1 4 3 2 2 2 1 3 4 4 2 2 4 2 3 7 7 6 6 8 9 9 9 9 9 8 8 8 8 8 7 7 7 8 8 8 7 7 7 7 8 8 8 8
3 1 4 4 3 4 3 2 3 1 1 2 2 3 3 1 1 2 2 6 6 6 5 5 8 9 9 9 8 8 7 7 7 7 7 7 6 7 7 7 7 7 6 6 6 7 7 7 7
3 4 4 3 3 4 3 2 1 1 1 2 3 3 2 1 1 2 4 6 7 5 4 5 8 8 8 8 8 8 7 7 7 6 6 6 6 6 6 6 6 6 5 5 5 6 6 6 6
4 4 3 0 4 3 2 2 1 1 1 1 2 3 0 2 2 5 6 6 7 5 4 5 6 7 8 8 8 7 7 6 6 6 5 5 5 6 6 6 6 5 5 5 5 6 6 5 5
4 4 3 2 4 3 2 2 0 0 0 1 2 2 1 1 3 3 4 5 6 5 4 4 5 5 6 7 7 6 6 6 5 5 4 4 5 5 5 5 5 5 5 5 5 5 5 5 5
4 3 3 3 3 3 2 1 1 0 1 1 2 3 1 1 1 3 4 4 5 5 4 3 3 3 4 5 5 5 5 5 4 4 4 3 3 4 4 4 4 4 4 4 4 4 4 4 4
4 3 1 2 2 3 2 1 0 1 1 1 2 4 3 2 2 3 4 4 4 4 3 3 2 2 2 3 4 4 4 4 4 3 3 3 3 3 3 2 3 4 4 3 3 3 3 3 3
3 3 2 3 2 3 1 1 2 1 1 1 1 2 2 5 5 5 3 3 3 3 3 2 2 2 2 2 3 3 4 3 3 2 3 2 1 1 1 2 2 3 3 3 3 2 2 2 2
4 3 5 3 2 2 1 1 2 1 1 1 1 2 3 5 6 5 4 3 3 3 2 2 3 2 2 2 2 2 2 2 2 1 2 1 1 1 1 2 2 2 2 2 2 1 1 1 1
3 5 3 2 2 1 2 3 2 1 3 4 4 3 3 3 4 5 5 5 5 4 3 3 3 3 3 2 2 1 1 1 1 2 2 1 1 1 1 1 1 1 1 1 1 1 1 1 1
2 3 3 3 2 2 3 2 2 3 7 5 4 5 5 5 5 6 6 5 4 4 4 3 3 3 2 2 2 2 1 1 1 2 2 2 1 1 1 1 1 1 0 0 0 0 1 1 1
3 3 3 2 2 2 2 3 3 6 7 3 2 3 5 6 6 5 5 4 4 4 4 4 4 3 3 2 2 2 2 2 2 2 2 2 2 2 1 1 1 1 1 1 1 1 1 1 1
3 3 4 4 4 3 3 5 3 8 4 2 3 4 5 5 5 4 3 4 4 4 4 4 4 4 3 3 2 2 2 2 2 2 2 3 2 2 2 1 1 1 1 1 1 1 2 2 2
0 2 5 4 3 2 1 5 7 8 2 3 3 4 4 4 4 5 5 4 4 4 3 3 4 4 4 3 3 2 2 2 2 2 2 2 2 2 2 2 2 1 1 1 1 0 0 1 1
1 1 3 4 2 2 2 8 8 3 3 4 4 4 4 4 4 4 3 3 3 3 3 3 3 3 3 3 2 2 2 2 2 2 1 2 2 2 2 2 2 1 1 1 1 1 0 1 1
1 2 4 5 2 1 3 8 8 2 3 5 5 4 4 3 3 3 3 3 3 4 4 4 3 4 3 3 2 2 2 2 2 2 2 2 2 2 2 2 1 1 1 1 1 1 1 1 1
4 4 4 5 3 1 4 9 10 5 4 6 5 4 4 4 6 4 3 3 3 3 3 3 3 3 3 2 1 1 1 1 1 2 2 2 2 2 2 1 1 1 1 1 0 1 1 1 1
3 3 5 6 3 2 7 10 10 7 4 5 4 4 5 5 4 3 3 3 3 3 3 3 3 3 2 2 2 1 1 1 1 1 1 2 2 2 2 1 1 1 2 2 2 1 0 0 0
4 4 5 5 2 3 5 9 8 5 4 5 5 5 5 4 2 2 2 2 3 3 3 3 3 3 3 3 2 2 1 1 1 1 1 2 2 2 2 2 2 2 1 1 1 1 1 1 1
5 6 5 4 4 2 3 8 4 3 2 2 3 4 4 5 4 3 3 3 3 3 4 3 3 3 3 3 2 1 1 1 0 1 1 2 2 2 2 2 2 2 2 2 2 2 2 2 2
7 4 4 3 1 4 1 5 6 3 3 3 3 3 4 3 4 3 3 3 3 3 3 3 3 3 2 3 3 3 2 2 3 2 2 2 2 2 2 2 2 2 2 2 2 2 2 3 2
5 2 3 3 3 3 2 3 8 2 4 5 5 4 4 4 3 3 3 4 3 2 2 2 2 2 2 2 3 4 3 2 1 1 2 2 2 2 2 2 2 2 2 2 2 2 2 2 3
1 2 2 2 2 4 5 5 8 4 5 4 3 3 3 2 2 1 1 1 1 1 1 1 1 1 1 2 2 3 3 3 2 2 2 2 1 2 2 2 2 2 2 2 3 3 3 2 3
2 4 3 4 2 6 2 4 9 6 4 5 5 4 2 1 1 0 0 0 0 0 0 0 1 1 1 1 2 3 3 4 4 3 3 2 2 2 3 2 3 2 2 2 2 2 3 3 3
5 6 6 5 5 5 2 6 7 4 2 1 2 2 1 0 0 0 1 1 1 1 0 0 1 1 1 1 2 1 2 2 2 2 2 3 3 3 3 3 3 3 3 2 2 2 2 2 3
4 4 3 3 0 2 5 5 6 2 1 1 1 1 1 1 1 1 0 0 0 0 0 1 1 1 1 1 1 1 1 1 2 1 1 2 2 2 2 2 3 3 2 2 2 2 3 2 3
2 4 4 4 4 4 6 5 5 5 5 3 2 2 1 1 1 1 1 1 1 1 1 1 0 0 1 1 1 1 1 1 1 1 2 2 2 1 2 2 2 2 2 2 2 2 2 2 3
3 3 4 3 4 5 5 7 5 6 5 4 3 2 1 1 1 1 1 2 1 1 1 1 1 1 1 1 1 1 1 1 1 1 2 2 2 2 2 3 3 3 2 2 2 3 3 3 3
4 6 6 5 5 5 4 8 2 3 3 3 3 1 1 1 1 1 2 2 2 2 1 1 2 1 2 1 1 1 1 1 1 1 2 1 2 2 2 3 3 3 3 3 4 4 4 4 4
Wind_Direction
332 335 54 58 59 58 244 255 230 322 27 37 62 95 103 101 127 154 140 129 130 149 161 162 148 141 138 136 133 131 131 130 130 129 128 125 123 118 113 109 107 104 102 100 96 92 86 80 75
326 352 56 64 97 158 256 255 224 224 192 111 55 72 81 66 51 110 124 143 139 149 153 156 145 141 141 140 140 139 137 134 133 133 133 131 128 126 119 114 111 108 105 102 99 96 89 81 76
324 62 82 85 141 190 219 233 208 195 101 96 65 56 91 115 114 155 164 144 136 137 144 151 146 144 144 144 145 144 143 140 137 137 138 138 134 130 125 120 117 113 110 109 106 101 93 84 77
47 49 60 87 221 230 213 230 209 142 39 52 99 73 51 18 165 164 134 137 132 131 132 145 146 146 145 148 148 148 147 144 141 139 142 140 137 134 130 125 121 116 115 114 112 106 97 89 81
61 79 78 303 249 255 245 254 200 157 169 6 105 114 89 350 74 118 129 136 135 134 131 141 143 149 148 147 151 151 149 147 144 143 141 145 141 139 136 131 127 120 119 119 114 109 106 99 88
62 75 110 225 248 261 280 283 222 55 256 334 108 129 186 31 94 123 128 134 135 135 133 137 143 147 152 151 148 149 147 145 142 141 141 140 141 141 139 136 133 129 127 127 122 119 118 106 94
109 114 175 212 247 265 280 326 126 234 236 245 165 141 171 9 112 120 115 117 117 118 118 120 132 142 147 147 144 142 141 143 139 137 137 129 124 127 130 135 140 138 134 132 128 128 122 112 101
132 117 192 233 232 251 290 349 336 139 226 290 127 147 203 210 151 108 98 99 105 106 109 109 112 123 133 141 140 137 138 143 143 136 122 119 118 117 114 126 143 148 139 136 136 132 127 115 106
101 92 212 226 214 250 307 350 315 344 104 27 53 164 197 140 130 111 96 83 101 114 120 124 128 130 135 142 141 137 136 137 137 130 120 109 101 108 112 117 138 160 157 149 145 141 118 100 89
100 165 222 227 209 230 309 302 289 350 331 312 351 18 98 131 140 141 147 155 157 165 163 158 156 151 143 144 122 127 131 131 121 117 124 114 116 122 113 109 118 131 139 138 132 129 94 72 73
154 198 222 255 247 245 282 296 302 191 250 225 212 202 159 157 163 172 180 180 182 179 174 174 171 168 156 145 140 144 135 132 128 135 137 127 113 99 75 84 88 90 97 94 86 62 94 123 122
182 241 227 253 266 263 257 269 284 228 231 224 203 182 174 179 190 196 197 194 183 177 187 183 169 163 163 152 153 158 151 152 151 161 153 142 142 148 157 144 133 125 123 146 146 165 182 179 179
224 253 260 258 272 255 258 251 250 254 248 247 213 175 186 193 203 207 202 194 183 182 187 187 174 170 166 155 163 159 167 170 168 165 162 155 162 176 175 177 165 157 153 162 212 212 206 209 209
224 251 269 268 261 256 251 267 244 258 247 234 206 198 201 203 204 201 196 196 194 190 190 187 178 176 171 173 173 170 166 171 171 173 179 172 170 177 179 183 184 176 182 190 204 232 218 223 217
266 296 301 270 237 236 201 289 242 244 220 233 226 215 208 210 199 200 199 196 195 189 183 183 184 176 176 178 179 174 173 168 178 187 185 181 176 177 179 187 199 201 195 185 164 255 271 254 237
18 353 290 277 206 206 151 263 269 241 191 223 231 229 220 224 212 208 194 187 184 176 177 184 183 178 182 178 175 174 176 177 186 183 182 188 180 174 177 187 209 202 172 173 168 169 238 258 266
11 260 255 283 225 176 189 255 277 257 207 233 232 226 218 228 231 221 196 186 179 179 181 182 182 180 184 180 176 178 175 179 187 184 181 187 172 174 180 191 205 179 164 186 196 223 212 240 242
220 229 250 255 265 208 241 260 277 275 234 240 240 226 218 221 227 213 201 191 178 174 178 178 176 179 173 159 149 148 152 186 191 193 197 188 182 184 182 187 192 167 163 193 196 235 272 232 231
200 219 252 259 256 243 248 265 274 271 255 239 238 227 221 228 232 205 196 188 169 164 169 176 172 179 164 163 173 181 208 213 219 223 206 192 193 189 176 180 183 184 199 208 189 187 229 254 187
232 246 262 281 273 249 273 277 274 255 235 219 218 223 220 229 238 209 186 175 183 184 185 189 186 184 185 188 184 190 184 204 215 221 214 203 198 205 189 184 190 197 210 205 201 177 184 246 192
238 223 236 261 317 305 310 302 290 284 254 239 228 224 215 211 218 212 192 191 188 192 198 201 198 193 195 182 154 113 90 63 149 225 221 228 207 201 199 193 189 202 207 215 215 199 187 218 248
241 225 226 244 293 281 201 287 284 266 283 272 256 244 234 231 215 203 197 197 202 207 207 210 196 187 188 178 174 171 182 203 216 212 218 233 219 209 199 195 196 200 213 226 232 226 211 194 219
224 221 221 223 214 279 244 239 281 276 265 264 255 249 245 233 211 202 201 199 198 194 192 203 186 189 183 181 184 188 196 213 219 205 208 228 229 217 206 199 200 208 215 223 232 240 228 214 211
183 59 39 40 90 265 224 198 273 236 228 246 250 251 250 231 193 186 167 129 133 118 135 169 171 198 176 177 188 196 202 194 199 215 216 230 242 236 214 207 207 212 215 221 228 226 225 236 231
118 105 33 354 334 254 205 206 252 244 226 218 226 232 229 216 187 141 113 132 247 230 183 181 178 217 200 183 203 208 212 201 203 216 218 227 238 242 220 217 213 217 221 223 224 225 231 232 236
190 163 168 202 232 274 264 233 253 250 230 225 205 200 221 260 244 237 225 210 224 238 247 211 213 232 226 207 227 220 209 209 222 221 230 229 232 233 225 222 222 223 217 219 218 232 242 241 238
167 193 179 145 78 282 264 271 290 243 240 247 215 158 244 280 317 299 297 255 244 246 273 258 257 302 310 273 258 245 218 221 230 229 229 241 238 236 222 226 227 224 217 215 215 233 242 239 243
173 153 127 150 174 249 275 255 238 224 229 235 227 216 247 288 325 347 4 21 8 9 359 3 2 314 324 309 271 273 250 238 232 224 230 250 258 230 214 225 226 226 225 218 219 235 238 240 248
156 172 172 164 177 185 252 262 225 204 203 196 205 204 204 274 313 352 9 9 10 18 17 4 351 355 352 334 309 289 273 255 238 242 242 239 249 244 221 220 223 220 222 220 220 235 232 236 250
192 190 169 177 224 209 226 262 265 180 180 165 163 147 96 63 34 29 18 7 5 2 357 349 337 335 321 323 333 316 310 307 276 271 273 269 254 252 250 232 226 224 224 225 223 229 235 233 238